Dansville, NY

2:34 PM EDT on March 23, 2017 (GMT -0400)
Dansville Municipal

Weather History for KDSV - February, 2013

Change the Weather History Date:

Wednesday, February 13, 2013

  Actual Average Record
Temperature  
Mean Temperature 34 °F -  
Max Temperature 42 °F 33 °F 66 °F (1965)
Min Temperature 26 °F 14 °F -8 °F (1967)
Degree Days  
Heating Degree Days 31    
Moisture  
Dew Point 23 °F    
Average Humidity 66    
Maximum Humidity 86    
Minimum Humidity 45    
Precipitation  
Precipitation 0.00 in - - ()
Sea Level Pressure  
Sea Level Pressure 29.84 in    
Wind  
Wind Speed 2 mph (NW)    
Max Wind Speed 13 mph    
Max Gust Speed -    
Visibility 10 miles    
Events      
Averages and records for this station are not official NWS values.
T = Trace of Precipitation, MM = Missing Value Source: NWS Daily Summary

Daily Weather History Graph

Daily Weather History Graph

Search for Another Location

Airport or City:

Trip Planner

Search our weather history database for the weather conditions in past years. The results will help you decide how hot, cold, wet, or windy it might be!

Date:

Astronomy

Feb. 13, 2013 Rise Set
Actual Time 7:10 AM EST 5:40 PM EST
Civil Twilight 6:41 AM EST 6:09 PM EST
Nautical Twilight 6:08 AM EST 6:42 PM EST
Astronomical Twilight 5:35 AM EST 7:15 PM EST
Moon 8:32 AM EST (2/13) 9:48 PM EST (2/13)
Length of Visible Light 11h 28m
Length of Day
10h 30m
Waxing Crescent, 13% of the Moon is Illuminated
Feb 13
Waxing Crescent
Feb 17
First Quarter
Feb 25
Full
Mar 4
Last Quarter
Mar 11
New

Hourly Weather History & Observations

Time (EST) Temp. Windchill Dew Point Humidity Pressure Visibility Wind Dir Wind Speed Gust Speed Precip Events Conditions
12:54 AM 32.0 °F - 21.0 °F 64% 29.95 in 10.0 mi Calm Calm - N/A   Overcast
1:54 AM 32.0 °F 28.7 °F 21.0 °F 64% 29.95 in 10.0 mi Variable 3.5 mph - N/A   Overcast
2:54 AM 30.9 °F - 21.9 °F 69% 29.93 in 10.0 mi Calm Calm - N/A   Overcast
3:54 AM 32.0 °F 28.7 °F 21.9 °F 66% 29.91 in 10.0 mi WNW 3.5 mph - N/A   Overcast
4:54 AM 32.0 °F - 23.0 °F 69% 29.91 in 10.0 mi Calm Calm - N/A   Overcast
5:54 AM 30.9 °F - 23.0 °F 72% 29.91 in 10.0 mi Calm Calm - N/A   Overcast
6:54 AM 30.9 °F - 24.1 °F 76% 29.91 in 10.0 mi Calm Calm - N/A   Overcast
7:54 AM 30.9 °F - 25.0 °F 79% 29.89 in 10.0 mi Calm Calm - N/A   Overcast
8:54 AM 33.1 °F 28.7 °F 19.9 °F 59% 29.88 in 10.0 mi Variable 4.6 mph - N/A   Overcast
9:54 AM 34.0 °F 31.0 °F 21.0 °F 59% 29.87 in 10.0 mi West 3.5 mph - N/A   Overcast
10:54 AM 35.1 °F 30.1 °F 21.0 °F 57% 29.86 in 10.0 mi NNW 5.8 mph - N/A   Overcast
11:54 AM 37.0 °F - 21.0 °F 52% 29.82 in 10.0 mi Calm Calm - N/A   Scattered Clouds
12:54 PM 37.9 °F - 21.0 °F 51% 29.81 in 10.0 mi Calm Calm - N/A   Clear
1:54 PM 39.9 °F - 21.9 °F 49% 29.76 in 10.0 mi Calm Calm - N/A   Clear
2:54 PM 42.1 °F 37.7 °F 21.9 °F 45% 29.74 in 10.0 mi South 6.9 mph - N/A   Clear
3:54 PM 41.0 °F 33.9 °F 24.1 °F 51% 29.73 in 10.0 mi NW 12.7 mph - N/A   Clear
4:54 PM 39.0 °F 33.4 °F 26.1 °F 60% 29.73 in 10.0 mi NW 8.1 mph - N/A   Clear
5:54 PM 36.0 °F 31.1 °F 25.0 °F 64% 29.74 in 10.0 mi NW 5.8 mph - N/A   Clear
6:54 PM 34.0 °F 29.8 °F 23.0 °F 64% 29.77 in 10.0 mi North 4.6 mph - N/A   Clear
7:54 PM 32.0 °F 24.8 °F 24.1 °F 73% 29.78 in 10.0 mi NW 8.1 mph - N/A   Clear
8:54 PM 30.9 °F 25.2 °F 24.1 °F 76% 29.80 in 10.0 mi NW 5.8 mph - N/A   Clear
9:54 PM 28.9 °F 21.9 °F 25.0 °F 85% 29.82 in 9.0 mi NW 6.9 mph - N/A   Clear
10:54 PM 28.0 °F 24.2 °F 24.1 °F 85% 29.83 in 9.0 mi NNW 3.5 mph - N/A   Clear
11:41 PM 26.6 °F - 23.0 °F 86% 29.79 in 8.0 mi Calm Calm - N/A   Mostly Cloudy
11:54 PM 27.0 °F - 23.0 °F 85% 29.84 in 7.0 mi Calm Calm - N/A   Scattered Clouds